Pagrindinis puslapis
METAR-TAF:

METAR-TAF

Oro uostai :

Ambler, Aliaska, Jungtinės Amerikos Valstijos

platuma: 67-06N, ilguma: 157-51W, Aukštis: 88 m

Dabartinis oras

Ataskaita buvo paskelbta 52 minutes, ne 09:56 UTC
Ramus vėjas
Temperatūra -24°C
Drėgmė 76%
Slėgis 1020 hPa
Matomumas: 16.1 km
Giedras dangus

METAR: PAFM 260956Z AUTO 00000KT 10SM CLR M24/M27 A3011 RMK AO2 SLP208 T12441267 FZRANO

Laikas: 01:48 (10:48 UTC)


TAF: trūkstamas

Orai ataskaitas ir orų prognozės (METAR, TAF).

turimą stotys yra geltonos ir raudonos taškus žemėlapyje.

Perkelti pele per norėdami pamatyti stoties vardą.

Tada spustelėkite, norėdami matyti oro stebėjimo ir prognozės.

Norėdami pakeisti žemėlapį: spustelėkite ant žalios mygtukų su juodo kryžiaus žemyn,; žalią mygtuką su brūkšneliu, jei norite nutolinti; arba žalių rodyklių gretimoms žemėlapius.


METAR-TAF: